Location: Torrington
(42.0650°N, 104.1810°W)
Time: 08:01:05
(UTC-07:00)

Amateur Radio Satellites - All Passes

Search period start: 03 March 2015 07:31
Search period end: 04 March 2015 07:31
Location: Torrington, 42.0650°N, 104.1810°W

Satellite Date Start Highest point End Downlink Frequencies (MHz)
Time Altitude Azimuth
HO-68 03 Mar 07:53:29 07:59:28 29° 93° (E) 08:05:37 435.675
AAUSAT CUBESAT 2 03 Mar 07:55:01 07:55:46 11° 87° (E) 07:56:48 437.432
COMPASS 1 03 Mar 07:56:59 07:58:58 13° 89° (E) 08:01:09 437.405
Cubesat XI-IV 03 Mar 08:20:27 08:22:07 11° 302° (WNW) 08:23:29 437.490
SEEDS 03 Mar 08:23:50 08:27:38 32° 96° (E) 08:31:29 437.485
CANX-2 03 Mar 08:27:51 08:31:58 47° 99° (E) 08:36:06 2200.000
TIGRISAT 03 Mar 08:32:49 08:35:08 15° 65° (ENE) 08:37:37 435.000
ISS 03 Mar 08:41:35 08:44:47 68° 143° (SE) 08:48:00 145.825
BRITE-PL 03 Mar 08:42:55 08:47:31 79° 284° (WNW) 08:51:46 437.365/2234.400
GOMX 1 03 Mar 08:44:32 08:48:56 71° 100° (E) 08:53:06 467.674
ANTELSAT 03 Mar 08:45:50 08:49:00 20° 67° (ENE) 08:52:14 437.575/2403.000
CUTE 1.7 + AOD 2 03 Mar 08:46:16 08:50:32 70° 101° (E) 08:54:47 437.475
O/OREOS (USA 219) 03 Mar 08:50:49 08:55:16 57° 109° (ESE) 08:59:47 437.305
DELFI C3 03 Mar 08:57:11 09:00:11 20° 93° (E) 09:03:17 145.870
UWE-3 03 Mar 08:58:07 09:00:35 16° 91° (E) 09:03:13 435.000/436.395/437.385
POLYITAN 1 03 Mar 08:59:35 09:02:10 16° 65° (ENE) 09:04:54 437.675
POPSAT HIP 1 03 Mar 08:59:48 09:02:21 16° 65° (ENE) 09:05:03 437.405
RS-15 03 Mar 09:03:13 09:14:21 57° 246° (WSW) 09:25:50 29.354- 29.394
SO-50 03 Mar 09:05:19 09:09:36 29° 45° (NE) 09:13:55 436.795
GONETS M04 03 Mar 09:15:34 09:24:19 75° 265° (W) 09:33:03
DOVE 4 03 Mar 09:16:23 09:20:40 75° 284° (WNW) 09:24:48 437.250
CINEMA 3 03 Mar 09:19:34 09:23:43 61° 100° (E) 09:27:48 145.822/145.860
NANOSAT C BR1 03 Mar 09:21:36 09:25:08 26° 69° (ENE) 09:28:46 145.865
Oscar 11 03 Mar 09:24:53 09:29:07 53° 99° (E) 09:33:22 145.826/435.025
AAUSAT CUBESAT 2 03 Mar 09:27:47 09:31:57 65° 285° (WNW) 09:36:06 437.432
COMPASS 1 03 Mar 09:30:57 09:35:04 52° 286° (WNW) 09:39:09 437.405
CUBEBUG 2 03 Mar 09:35:50 09:39:53 50° 99° (E) 09:43:57 437.445
HO-68 03 Mar 09:40:36 09:47:36 56° 292° (WNW) 09:54:33 435.675
UNISAT 6 03 Mar 09:42:20 09:46:44 81° 76° (ENE) 09:51:05 437.425
DX 1 03 Mar 09:50:21 09:54:34 45° 99° (E) 09:58:45 434.975-435.025
QB50P1 03 Mar 09:53:50 09:58:04 59° 74° (ENE) 10:02:18 145.935-145.965
AISAT 03 Mar 09:57:14 10:00:43 23° 93° (E) 10:04:17 437.250
QB50P2 03 Mar 09:57:53 10:02:09 67° 75° (ENE) 10:06:25 145.880/145.840
SEEDS 03 Mar 10:00:00 10:03:20 22° 292° (WNW) 10:06:34 437.485
BUGSAT 1 03 Mar 10:00:40 10:04:49 52° 73° (ENE) 10:09:00 437.445
50 SAT 03 Mar 10:00:51 10:03:57 22° 94° (E) 10:07:08 437.505
CANX-2 03 Mar 10:04:53 10:07:35 16° 294° (WNW) 10:10:08 2200.000
VELOX 1 03 Mar 10:06:13 10:10:00 27° 95° (E) 10:13:50 145.980
TIGRISAT 03 Mar 10:07:12 10:11:32 55° 260° (W) 10:15:49 435.000
HUMSAT D 03 Mar 10:10:27 10:14:22 42° 98° (E) 10:18:19 437.325/437.525
FUNcube-1 03 Mar 10:11:00 10:15:10 85° 102° (ESE) 10:19:21 145.935
DUCHIFAT 1 03 Mar 10:12:20 10:16:37 87° 257° (WSW) 10:20:55 145.980
ZACube-1 03 Mar 10:12:31 10:16:41 90° 97° (E) 10:20:51 437.345
ISS 03 Mar 10:18:47 10:21:27 23° 341° (NNW) 10:24:08 145.825
UKube-1 03 Mar 10:18:56 10:23:19 90° 30° (NNE) 10:27:39 .
ANTELSAT 03 Mar 10:21:30 10:25:37 38° 262° (W) 10:29:39 437.575/2403.000
CUTE 1.7 + AOD 2 03 Mar 10:24:25 10:25:57 12° 297° (WNW) 10:27:18 437.475
ESTCUBE 1 03 Mar 10:24:34 10:28:03 22° 92° (E) 10:31:39 437.505/2401.250
GOMX 1 03 Mar 10:25:02 10:26:30 11° 299° (WNW) 10:27:45 467.674
DANDE 03 Mar 10:28:15 10:30:34 26° 74° (ENE) 10:32:50 436.750
DELFI C3 03 Mar 10:31:49 10:35:30 32° 289° (WNW) 10:39:09 145.870
O/OREOS (USA 219) 03 Mar 10:32:04 10:35:09 17° 308° (NW) 10:38:06 437.305
UWE-3 03 Mar 10:33:29 10:37:26 42° 288° (WNW) 10:41:21 435.000/436.395/437.385
POLYITAN 1 03 Mar 10:33:35 10:37:45 48° 260° (W) 10:41:56 437.675
POPSAT HIP 1 03 Mar 10:33:44 10:37:55 49° 261° (W) 10:42:05 437.405
SO-50 03 Mar 10:45:38 10:50:20 43° 243° (WSW) 10:54:58 436.795
CUSAT 1 03 Mar 10:53:29 10:56:04 67° 263° (W) 10:58:44 437.405
NANOSAT C BR1 03 Mar 10:57:15 11:00:58 27° 265° (W) 11:04:37 145.865
CINEMA 3 03 Mar 10:58:43 11:00:29 12° 296° (WNW) 11:02:04 145.822/145.860
Oscar 11 03 Mar 11:02:22 11:04:56 15° 295° (WNW) 11:07:21 145.826/435.025
Oscar 19 03 Mar 11:09:40 11:12:19 15° 61° (ENE) 11:15:12 437.125/150
CUBEBUG 2 03 Mar 11:13:55 11:16:16 14° 295° (WNW) 11:18:26 437.445
GONETS M04 03 Mar 11:15:37 11:19:49 14° 284° (WNW) 11:23:22
RS-15 03 Mar 11:22:54 11:24:46 10° 263° (W) 11:25:17 29.354- 29.394
DX 1 03 Mar 11:27:31 11:30:30 18° 295° (WNW) 11:33:21 434.975-435.025
HO-68 03 Mar 11:31:38 11:33:58 11° 311° (NW) 11:35:53 435.675
QB50P1 03 Mar 11:32:32 11:34:24 12° 271° (W) 11:36:04 145.935-145.965
AISAT 03 Mar 11:33:24 11:37:27 34° 290° (WNW) 11:41:24 437.250
CUBEBUG 1 03 Mar 11:33:58 11:38:24 75° 285° (WNW) 11:42:45 437.445
50 SAT 03 Mar 11:35:35 11:38:58 27° 290° (WNW) 11:42:19 437.505
QB50P2 03 Mar 11:37:25 11:38:36 11° 272° (W) 11:39:31 145.880/145.840
BUGSAT 1 03 Mar 11:38:20 11:40:41 14° 270° (W) 11:42:51 437.445
VELOX 1 03 Mar 11:42:43 11:46:34 28° 291° (WNW) 11:50:19 145.980
HUMSAT D 03 Mar 11:47:13 11:49:52 16° 294° (WNW) 11:52:24 437.325/437.525
ISS 03 Mar 11:56:45 11:58:44 15° 1° (N) 12:00:42 145.825
ESTCUBE 1 03 Mar 12:00:52 12:05:06 37° 290° (WNW) 12:09:15 437.505/2401.250
SPROUT 03 Mar 12:03:09 12:07:24 58° 100° (E) 12:11:37 437.525
TISAT 1 03 Mar 12:04:22 12:08:31 52° 100° (E) 12:12:37 437.305
BEESAT 03 Mar 12:14:29 12:15:16 10° 86° (E) 12:16:23 436.000
Gurwin Techsat 1B 03 Mar 12:24:50 12:28:26 19° 63° (ENE) 12:32:13 435.225
AO-7 03 Mar 12:34:52 12:37:31 12° 43° (NE) 12:40:39 29.400- 29.500
ITUPSAT 1 03 Mar 12:40:07 12:43:36 20° 92° (E) 12:47:13 437.325
Oscar 19 03 Mar 12:45:59 12:51:07 76° 257° (WSW) 12:56:17 437.125/150
ITAMSAT 1 03 Mar 12:46:29 12:51:16 39° 69° (ENE) 12:56:07 435.822/435.867
HORYU 2 03 Mar 13:14:58 13:16:47 13° 62° (ENE) 13:18:48 437.375
ISS 03 Mar 13:33:09 13:35:56 26° 21° (NNE) 13:38:45 145.825
SWISSCUBE 03 Mar 13:40:33 13:45:23 89° 95° (E) 13:50:13 437.505
SPROUT 03 Mar 13:40:46 13:43:05 14° 296° (WNW) 13:45:12 437.525
TISAT 1 03 Mar 13:41:31 13:43:57 15° 296° (WNW) 13:46:12 437.305
KKS-1 03 Mar 13:47:24 13:50:28 19° 92° (E) 13:53:39 437.445
BEESAT 03 Mar 13:49:01 13:53:51 82° 285° (WNW) 13:58:39 436.000
STARS 03 Mar 13:52:36 13:54:37 13° 89° (E) 13:56:52 437.465
Gurwin Techsat 1B 03 Mar 14:02:46 14:08:00 59° 259° (W) 14:13:17 435.225
YUBILEINY 03 Mar 14:15:24 14:20:29 18° 79° (ENE) 14:26:05 435.215
ITUPSAT 1 03 Mar 14:17:09 14:21:46 44° 289° (WNW) 14:26:19 437.325
AO-7 03 Mar 14:20:39 14:28:34 51° 64° (ENE) 14:36:33 29.400- 29.500
ITAMSAT 1 03 Mar 14:26:28 14:30:54 27° 266° (W) 14:35:16 435.822/435.867
HORYU 2 03 Mar 14:48:31 14:52:57 69° 259° (W) 14:57:23 437.375
JAS-2 03 Mar 15:01:51 15:07:05 46° 69° (ENE) 15:13:00 435.910
ISS 03 Mar 15:09:22 15:12:32 53° 219° (SW) 15:15:42 145.825
SWISSCUBE 03 Mar 15:20:56 15:22:37 11° 300° (WNW) 15:24:02 437.505
KKS-1 03 Mar 15:23:09 15:27:21 41° 289° (WNW) 15:31:29 437.445
STARS 03 Mar 15:27:14 15:31:33 57° 287° (WNW) 15:35:49 437.465
BEESAT 03 Mar 15:30:19 15:31:00 10° 301° (WNW) 15:31:24 436.000
BEESAT 3 03 Mar 15:37:26 15:38:36 11° 109° (ESE) 15:40:00 437.485
M-CUBED/EXP-1 PRIME 03 Mar 15:50:48 15:54:14 23° 100° (E) 15:57:55 437.505
AUBIESAT-1 03 Mar 15:52:03 15:55:21 21° 99° (E) 15:58:54 437.475
BEESAT 2 03 Mar 16:02:15 16:05:05 19° 112° (ESE) 16:08:03 435.950
YUBILEINY 03 Mar 16:07:27 16:16:12 89° 97° (E) 16:25:04 435.215
AO-7 03 Mar 16:13:56 16:21:37 38° 263° (W) 16:29:09 29.400- 29.500
Cubesat XI-IV 03 Mar 16:21:15 16:25:31 25° 65° (ENE) 16:29:55 437.490
VERMONT LUNAR 03 Mar 16:23:59 16:26:29 19° 152° (SSE) 16:29:02 437.305
CUTE-I 03 Mar 16:29:38 16:34:09 29° 66° (ENE) 16:38:47 437.470
PHONESAT 2.4 03 Mar 16:35:51 16:37:29 13° 148° (SSE) 16:39:13 2401.200-2431.200
MOZHAYETS 4 03 Mar 16:41:03 16:45:41 68° 101° (E) 16:50:18
JAS-2 03 Mar 16:48:02 16:52:36 25° 270° (W) 16:57:27 435.910
BEESAT 3 03 Mar 17:12:06 17:16:11 69° 304° (NW) 17:20:20 437.485
AIST 1 03 Mar 17:17:41 17:21:32 29° 74° (ENE) 17:25:23
O/OREOS (USA 219) 03 Mar 17:22:28 17:24:58 15° 50° (NE) 17:27:37 437.305
M-CUBED/EXP-1 PRIME 03 Mar 17:25:17 17:29:12 36° 294° (WNW) 17:33:21 437.505
PRISM 03 Mar 17:26:04 17:28:13 14° 90° (E) 17:30:32 437.425
AUBIESAT-1 03 Mar 17:26:19 17:30:18 39° 293° (WNW) 17:34:31 437.475
STRAND 1 03 Mar 17:38:06 17:40:19 13° 87° (E) 17:42:49 437.568
BEESAT 2 03 Mar 17:39:01 17:42:59 43° 309° (NW) 17:47:00 435.950
AIST 2 03 Mar 17:41:51 17:46:06 79° 122° (ESE) 17:50:25 435.215
Cubesat XI-IV 03 Mar 18:00:17 18:05:24 45° 262° (W) 18:10:34 437.490
VERMONT LUNAR 03 Mar 18:00:35 18:04:00 53° 168° (SSE) 18:07:25 437.305
YUBILEINY 03 Mar 18:08:15 18:14:31 20° 300° (WNW) 18:20:25 435.215
CUTE-I 03 Mar 18:09:09 18:14:08 38° 263° (W) 18:19:07 437.470
PHONESAT 2.4 03 Mar 18:11:58 18:15:25 41° 163° (SSE) 18:18:52 2401.200-2431.200
BRITE-PL 03 Mar 18:16:53 18:20:20 18° 64° (ENE) 18:23:54 437.365/2234.400
GOMX 1 03 Mar 18:18:22 18:19:49 11° 62° (ENE) 18:21:32 467.674
MOZHAYETS 4 03 Mar 18:19:59 18:22:26 14° 297° (WNW) 18:24:41
HO-68 03 Mar 18:23:29 18:28:50 24° 58° (ENE) 18:34:24 435.675
CUBESAT XI-V 03 Mar 18:43:00 18:47:45 84° 284° (WNW) 18:52:26 437.345
DOVE 4 03 Mar 18:46:51 18:49:22 14° 64° (ENE) 18:52:02 437.250
COMPASS 1 03 Mar 18:50:42 18:51:29 11° 63° (ENE) 18:52:31 437.405
BEESAT 3 03 Mar 18:53:52 18:55:07 11° 325° (NW) 18:56:14 437.485
AIST 1 03 Mar 18:55:30 18:59:06 24° 271° (W) 19:02:36
PRISM 03 Mar 18:59:57 19:04:04 51° 288° (WNW) 19:08:10 437.425
O/OREOS (USA 219) 03 Mar 19:00:23 19:04:59 70° 250° (WSW) 19:09:30 437.305
STRAND 1 03 Mar 19:15:02 19:20:12 75° 286° (WNW) 19:25:19 437.568
SEEDS 03 Mar 19:16:55 19:20:17 25° 69° (ENE) 19:23:44 437.485
CANX-2 03 Mar 19:21:27 19:25:17 36° 71° (ENE) 19:29:10 2200.000
AIST 2 03 Mar 19:22:40 19:25:17 15° 321° (NW) 19:27:50 435.215
VERMONT LUNAR 03 Mar 19:38:19 19:41:47 67° 185° (S) 19:45:15 437.305
CUTE 1.7 + AOD 2 03 Mar 19:39:35 19:43:40 52° 74° (ENE) 19:47:48 437.475
DELFI C3 03 Mar 19:46:47 19:48:53 14° 65° (ENE) 19:51:09 145.870
PHONESAT 2.4 03 Mar 19:50:04 19:53:43 70° 178° (S) 19:57:20 2401.200-2431.200
GOMX 1 03 Mar 19:51:57 19:57:20 81° 75° (ENE) 20:02:28 467.674
BRITE-PL 03 Mar 19:52:45 19:58:24 71° 258° (WSW) 20:03:48 437.365/2234.400
UWE-3 03 Mar 19:56:20 19:58:54 16° 66° (ENE) 20:01:35 435.000/436.395/437.385
PCSat 03 Mar 20:02:44 20:08:01 58° 116° (ESE) 20:13:23 145.827
HO-68 03 Mar 20:08:52 20:15:59 72° 256° (WSW) 20:23:10 435.675
AAUSAT CUBESAT 2 03 Mar 20:18:59 20:23:08 88° 79° (ENE) 20:27:18 437.432
Oscar 11 03 Mar 20:20:06 20:24:09 43° 72° (ENE) 20:28:16 145.826/435.025
CINEMA 3 03 Mar 20:21:17 20:26:00 61° 74° (ENE) 20:30:31 145.822/145.860
DOVE 4 03 Mar 20:21:32 20:26:41 75° 259° (W) 20:31:35 437.250
GONETS M04 03 Mar 20:22:25 20:29:06 27° 83° (E) 20:36:05
COMPASS 1 03 Mar 20:22:32 20:26:41 73° 258° (WSW) 20:30:51 437.405
CUBEBUG 2 03 Mar 20:34:24 20:38:42 46° 73° (ENE) 20:42:54 437.445
DX 1 03 Mar 20:46:20 20:50:28 42° 71° (ENE) 20:54:39 434.975-435.025
50 SAT 03 Mar 20:48:55 20:51:17 16° 66° (ENE) 20:53:46 437.505
SEEDS 03 Mar 20:52:24 20:56:03 28° 265° (W) 20:59:38 437.485
AISAT 03 Mar 20:55:52 20:59:22 23° 67° (ENE) 21:02:59 437.250
STRAND 1 03 Mar 20:57:41 20:58:37 10° 302° (WNW) 20:59:14 437.568
CUBEBUG 1 03 Mar 20:58:15 20:58:57 10° 61° (ENE) 20:59:54 437.445
CANX-2 03 Mar 20:58:17 21:01:24 19° 268° (W) 21:04:24 2200.000
HUMSAT D 03 Mar 21:03:02 21:06:46 33° 71° (ENE) 21:10:31 437.325/437.525
VELOX 1 03 Mar 21:04:31 21:08:16 27° 68° (ENE) 21:12:06 145.980
FUNcube-1 03 Mar 21:07:04 21:11:24 71° 75° (ENE) 21:15:40 145.935
ZACube-1 03 Mar 21:08:44 21:13:07 75° 76° (ENE) 21:17:24 437.345
UKube-1 03 Mar 21:14:06 21:18:27 81° 76° (ENE) 21:22:50 .
VERMONT LUNAR 03 Mar 21:16:18 21:19:27 32° 201° (SSW) 21:22:35 437.305
CUTE 1.7 + AOD 2 03 Mar 21:17:49 21:20:00 13° 271° (W) 21:22:00 437.475
RS-15 03 Mar 21:18:33 21:26:04 23° 103° (ESE) 21:34:09 29.354- 29.394
DELFI C3 03 Mar 21:19:49 21:23:44 48° 261° (W) 21:27:40 145.870
ESTCUBE 1 03 Mar 21:25:01 21:28:27 22° 67° (ENE) 21:32:01 437.505/2401.250
PHONESAT 2.4 03 Mar 21:28:31 21:32:01 45° 196° (SSW) 21:35:29 2401.200-2431.200
UWE-3 03 Mar 21:30:48 21:35:08 51° 261° (W) 21:39:22 435.000/436.395/437.385
GOMX 1 03 Mar 21:33:38 21:36:03 13° 273° (W) 21:38:08 467.674
UNISAT 6 03 Mar 21:35:09 21:37:39 15° 91° (E) 21:40:21 437.425
QB50P2 03 Mar 21:45:57 21:46:33 10° 87° (E) 21:47:27 145.880/145.840
PCSat 03 Mar 21:47:27 21:51:52 24° 315° (NW) 21:56:13 145.827
Oscar 11 03 Mar 21:57:44 22:00:36 17° 269° (W) 22:03:20 145.826/435.025
DUCHIFAT 1 03 Mar 21:58:29 22:00:44 14° 90° (E) 22:03:09 145.980
TIGRISAT 03 Mar 21:58:46 22:02:24 27° 95° (E) 22:06:07 435.000
CINEMA 3 03 Mar 22:01:04 22:03:37 14° 271° (W) 22:05:53 145.822/145.860
HO-68 03 Mar 22:02:50 22:05:11 11° 276° (W) 22:06:55 435.675
CUBEBUG 2 03 Mar 22:12:44 22:15:41 17° 269° (W) 22:18:25 437.445
ANTELSAT 03 Mar 22:12:47 22:16:49 39° 98° (E) 22:20:56 437.575/2403.000
GONETS M04 03 Mar 22:16:43 22:25:20 66° 282° (WNW) 22:33:59
POPSAT HIP 1 03 Mar 22:19:07 22:22:35 25° 94° (E) 22:26:07 437.405
POLYITAN 1 03 Mar 22:19:14 22:22:44 25° 94° (E) 22:26:17 437.675
CUSAT 1 03 Mar 22:21:04 22:24:10 15° 93° (E) 22:27:09 437.405
50 SAT 03 Mar 22:22:13 22:26:00 41° 262° (W) 22:29:47 437.505
DX 1 03 Mar 22:23:52 22:26:58 18° 268° (W) 22:29:55 434.975-435.025
CUBEBUG 1 03 Mar 22:30:16 22:34:43 86° 258° (WSW) 22:39:13 437.445
AISAT 03 Mar 22:31:41 22:35:50 35° 263° (W) 22:39:58 437.250
HUMSAT D 03 Mar 22:39:26 22:42:39 21° 267° (W) 22:45:46 437.325/437.525
VELOX 1 03 Mar 22:40:51 22:44:48 29° 265° (W) 22:48:42 145.980
NANOSAT C BR1 03 Mar 22:41:24 22:45:27 44° 98° (E) 22:49:29 145.865
FUNcube-1 03 Mar 22:47:33 22:48:18 10° 273° (W) 22:48:45 145.935
TISAT 1 03 Mar 22:57:04 23:01:06 42° 72° (ENE) 23:05:10 437.305
SPROUT 03 Mar 22:57:40 23:01:49 47° 73° (ENE) 23:06:00 437.525
ESTCUBE 1 03 Mar 23:00:56 23:05:09 37° 263° (W) 23:09:23 437.505/2401.250
PHONESAT 2.4 03 Mar 23:07:54 23:09:58 14° 211° (SSW) 23:11:59 2401.200-2431.200
UNISAT 6 03 Mar 23:10:38 23:14:47 47° 287° (WNW) 23:18:57 437.425
SWISSCUBE 03 Mar 23:12:53 23:14:59 13° 61° (ENE) 23:17:17 437.505
QB50P1 03 Mar 23:14:29 23:18:43 76° 285° (WNW) 23:22:55 145.935-145.965
BUGSAT 1 03 Mar 23:18:05 23:22:16 87° 103° (ESE) 23:26:22 437.445
QB50P2 03 Mar 23:18:49 23:23:02 67° 285° (WNW) 23:27:13 145.880/145.840
BEESAT 03 Mar 23:20:51 23:23:18 15° 62° (ENE) 23:25:58 436.000
RS-15 03 Mar 23:26:12 23:37:08 88° 304° (WNW) 23:48:17 29.354- 29.394
DUCHIFAT 1 03 Mar 23:32:51 23:36:56 48° 287° (WNW) 23:40:58 145.980
TIGRISAT 03 Mar 23:35:30 23:39:08 27° 291° (WNW) 23:42:44 435.000
DANDE 03 Mar 23:38:18 23:45:01 66° 98° (E) 23:50:02 436.750
ITUPSAT 1 03 Mar 23:47:28 23:51:19 25° 67° (ENE) 23:55:17 437.325
ANTELSAT 03 Mar 23:50:18 23:53:25 19° 293° (WNW) 23:56:26 437.575/2403.000
BEESAT 3 03 Mar 23:54:38 23:56:18 12° 36° (NE) 23:58:05 437.485
POPSAT HIP 1 03 Mar 23:54:51 23:58:30 28° 291° (WNW) 00:02:04 437.405
POLYITAN 1 03 Mar 23:55:02 23:58:40 27° 291° (WNW) 00:02:12 437.675
CUSAT 1 04 Mar 00:00:52 00:07:02 65° 281° (W) 00:11:36 437.405
NANOSAT C BR1 04 Mar 00:18:14 00:21:01 17° 294° (WNW) 00:23:40 145.865
GONETS M04 04 Mar 00:20:21 00:24:25 13° 307° (NW) 00:27:53
BEESAT 2 04 Mar 00:20:56 00:23:41 17° 41° (NE) 00:26:31 435.950
AIST 2 04 Mar 00:27:41 00:28:05 10° 33° (NNE) 00:28:39 435.215
TISAT 1 04 Mar 00:34:14 00:37:09 17° 269° (W) 00:39:56 437.305
SPROUT 04 Mar 00:35:29 00:38:14 16° 270° (W) 00:40:48 437.525
KKS-1 04 Mar 00:46:23 00:49:31 19° 66° (ENE) 00:52:46 437.445
SWISSCUBE 04 Mar 00:47:31 00:52:17 77° 258° (WSW) 00:57:07 437.505
STARS 04 Mar 00:50:34 00:52:46 14° 64° (ENE) 00:55:10 437.465
BEESAT 04 Mar 00:55:55 01:00:39 69° 258° (WSW) 01:05:28 436.000
Oscar 19 04 Mar 00:57:20 01:02:02 36° 96° (E) 01:06:46 437.125/150
SO-50 04 Mar 01:00:10 01:04:40 57° 119° (ESE) 01:09:20 436.795
ITAMSAT 1 04 Mar 01:00:42 01:02:49 13° 87° (E) 01:05:14 435.822/435.867
DANDE 04 Mar 01:24:24 01:28:28 17° 289° (WNW) 01:31:44 436.750
ITUPSAT 1 04 Mar 01:24:39 01:29:05 36° 263° (W) 01:33:31 437.325
BEESAT 3 04 Mar 01:30:58 01:35:08 81° 56° (ENE) 01:39:13 437.485
RS-15 04 Mar 01:41:42 01:51:17 32° 331° (NNW) 02:00:57 29.354- 29.394
BEESAT 2 04 Mar 01:58:10 02:02:17 61° 240° (WSW) 02:06:19 435.950
AIST 2 04 Mar 02:03:26 02:07:41 58° 53° (NE) 02:11:51 435.215
YUBILEINY 04 Mar 02:17:19 02:25:43 46° 73° (ENE) 02:34:09 435.215
Gurwin Techsat 1B 04 Mar 02:18:29 02:23:42 54° 99° (E) 02:28:54 435.225
KKS-1 04 Mar 02:21:37 02:25:54 43° 262° (W) 02:30:11 437.445
STARS 04 Mar 02:24:25 02:28:48 61° 259° (WSW) 02:33:12 437.465
AO-7 04 Mar 02:24:27 02:27:45 13° 85° (E) 02:31:41 29.400- 29.500
Oscar 19 04 Mar 02:36:56 02:41:17 28° 293° (WNW) 02:45:33 437.125/150
ITAMSAT 1 04 Mar 02:37:48 02:43:03 78° 287° (WNW) 02:48:15 435.822/435.867
HORYU 2 04 Mar 02:40:09 02:43:33 22° 93° (E) 02:47:03 437.375
M-CUBED/EXP-1 PRIME 04 Mar 02:41:12 02:43:58 25° 64° (ENE) 02:46:52 437.505
SO-50 04 Mar 02:41:56 02:45:37 22° 319° (NW) 02:49:19 436.795
AUBIESAT-1 04 Mar 02:42:00 02:44:39 23° 63° (ENE) 02:47:27 437.475
PCSat 04 Mar 03:09:13 03:10:40 11° 32° (NNE) 03:12:20 145.827
MOZHAYETS 4 04 Mar 03:43:20 03:47:50 66° 75° (ENE) 03:52:25
AIST 2 04 Mar 03:43:30 03:45:51 14° 250° (WSW) 03:48:02 435.215
JAS-2 04 Mar 03:53:41 04:00:53 48° 97° (E) 04:08:27 435.910
Gurwin Techsat 1B 04 Mar 03:59:21 04:03:20 21° 296° (WNW) 04:07:10 435.225
RS-15 04 Mar 04:00:14 04:08:24 22° 5° (N) 04:16:50 29.354- 29.394
CUBESAT XI-V 04 Mar 04:12:54 04:14:27 12° 62° (ENE) 04:16:14 437.345
AO-7 04 Mar 04:13:52 04:22:12 73° 106° (ESE) 04:30:28 29.400- 29.500
YUBILEINY 04 Mar 04:14:24 04:22:29 40° 273° (W) 04:30:23 435.215
HORYU 2 04 Mar 04:16:16 04:20:21 36° 290° (WNW) 04:24:24 437.375
M-CUBED/EXP-1 PRIME 04 Mar 04:16:39 04:19:01 18° 262° (W) 04:21:21 437.505
AUBIESAT-1 04 Mar 04:17:03 04:19:35 20° 261° (W) 04:22:08 437.475
PRISM 04 Mar 04:18:05 04:19:36 12° 63° (ENE) 04:21:19 437.425
ITAMSAT 1 04 Mar 04:20:15 04:21:47 11° 302° (WNW) 04:23:02 435.822/435.867
PCSat 04 Mar 04:50:12 04:55:30 51° 55° (NE) 05:00:47 145.827
STRAND 1 04 Mar 04:53:50 04:57:36 22° 64° (ENE) 05:01:32 437.568
MOZHAYETS 4 04 Mar 05:23:39 05:25:38 12° 273° (W) 05:27:23
JAS-2 04 Mar 05:38:59 05:45:48 39° 293° (WNW) 05:52:50 435.910
CUBESAT XI-V 04 Mar 05:46:35 05:51:17 83° 259° (W) 05:56:02 437.345
AIST 1 04 Mar 05:48:47 05:51:32 17° 87° (E) 05:54:27
PRISM 04 Mar 05:50:31 05:54:37 65° 258° (WSW) 05:58:48 437.425
AO-7 04 Mar 06:07:37 06:14:22 28° 304° (NW) 06:20:53 29.400- 29.500
RS-15 04 Mar 06:14:35 06:25:01 41° 37° (NE) 06:36:01 29.354- 29.394
Cubesat XI-IV 04 Mar 06:16:49 06:22:12 72° 102° (ESE) 06:27:33 437.490
CUTE-I 04 Mar 06:25:19 06:30:43 84° 103° (ESE) 06:36:04 437.470
STRAND 1 04 Mar 06:31:31 06:36:30 50° 260° (W) 06:41:32 437.568
GONETS M04 04 Mar 06:32:18 06:35:50 13° 53° (NE) 06:39:58
PCSat 04 Mar 06:34:20 06:38:38 23° 252° (WSW) 06:42:45 145.827
